Flag for Canada Weather past 2 weeks in Sanikiluaq, Nunavut, Canada

Now
34 °F

Overcast.


Feels Like: 28 °F
Forecast: 23 / 31 °F
Wind: 7 mph from West

Location: Kuujjuarapik

Current Time: May 25, 2015 at 3:58:34 PM

Latest Report: May 25, 2015 at 3:00 PM


Visibility: 9 mi

Pressure: 29.99 "Hg

Humidity: 81%

Dew point: 28 °F

Location of SanikiluaqLocation

Historic Weather in Sanikiluaq — Graph

°F

Sanikiluaq temperature yesterday

Maximum temperature yesterday: 41 °F (at 1:00 PM)
Minimum temperature yesterday: 25 °F (at 4:00 AM)
Average temperature yesterday: 31 °F

Past Weeks' High & Low Weather Summary

 TemperatureHumidityPressure
High55 °F (May 16, 2:00 PM)100% (May 12, 3:00 AM)30.44 "Hg (May 12, 3:00 AM)
Low19 °F (May 22, 12:00 AM)41% (May 13, 10:00 PM)29.63 "Hg (May 24, 1:00 PM)
Average31 °F84%30.01 "Hg
* Reported May 10 2:00 PM — May 25 2:00 PM, Sanikiluaq, Weather by CustomWeather, © 2015

Note: Actual official high and low records may vary slightly from our data, if they occured in-between our weather recording intervals... More about our weather records

Advertising

Sanikiluaq weather history for previous 24 hours

 ConditionsComfort  
Time TempWeatherWind HumidityBarometerVisibility
2:00 PM
Mon, May 25
32 °FOvercast.8 mph80%30.01 "Hg9 mi
1:00 PM32 °FOvercast.7 mph75%30.02 "Hg9 mi
12:00 PM32 °FOvercast.8 mph75%30.02 "Hg9 mi
11:00 AM32 °FOvercast.7 mph80%30.02 "Hg9 mi
10:00 AM30 °FOvercast.9 mph93%30.01 "Hg9 mi
9:00 AM30 °FOvercast.10 mph93%30.00 "Hg9 mi
8:00 AM30 °FOvercast.9 mph93%29.97 "Hg9 mi
7:00 AM30 °FOvercast.8 mph93%29.94 "Hg9 mi
6:47 AM30 °FOvercast.9 mph93%29.93 "Hg9 mi
6:00 AM30 °FOvercast.9 mph93%29.92 "Hg9 mi
5:00 AM30 °FLight snow. Overcast.14 mph93%29.89 "Hg7 mi
4:49 AM30 °FLight snow. Overcast.10 mph86%29.88 "Hg9 mi
4:00 AM30 °FMostly cloudy.9 mph93%29.85 "Hg9 mi
3:00 AM32 °FMostly cloudy.14 mph93%29.83 "Hg9 mi
2:59 AM32 °FMostly cloudy.15 mph93%29.83 "Hg9 mi
2:01 AM32 °FOvercast.15 mph93%29.79 "Hg9 mi
1:01 AM32 °FLight snow. Mostly cloudy.10 mph93%29.78 "Hg9 mi
12:00 AM32 °FOvercast.12 mph93%29.76 "Hg9 mi
11:04 PM
Sun, May 24
30 °FLight snow. Mostly cloudy.15 mph100%29.75 "Hg6 mi
11:02 PM30 °FLight snow. Mostly cloudy.15 mph100%29.75 "Hg3 mi
10:00 PM32 °FCloudy.17 mph93%29.73 "Hg9 mi
9:00 PM32 °FMore clouds than sun.15 mph93%29.71 "Hg9 mi
8:56 PM32 °FCloudy.16 mph93%29.71 "Hg9 mi
8:00 PM34 °FMostly cloudy.17 mph87%29.70 "Hg9 mi
7:00 PM34 °FOvercast.20 mph87%29.68 "Hg9 mi
6:00 PM34 °FCloudy.21 mph93%29.66 "Hg9 mi
5:00 PM34 °FMore clouds than sun.21 mph93%29.65 "Hg9 mi
4:56 PM34 °FCloudy.24 mph93%29.65 "Hg9 mi
4:00 PM36 °FLight rain. More clouds than sun.16 mph87%29.65 "Hg9 mi
3:55 PM36 °FLight rain. Cloudy.20 mph93%29.65 "Hg9 mi
3:00 PM36 °FOvercast.20 mph87%29.64 "Hg9 mi
Weather by CustomWeather, © 2015

See weather overviewHow to use our weather pages